This demonstration page uses our WeatherBlox Daily Observations layout. Learn more.

Left ArrowRight Arrow

Hourly Observations for October 25, 2018

Temp ( °F °C ) Dew Point ( °F °C ) Humidity (%) Winds ( mph kmh ) Pressure ( in mb ) Visibility ( mi km ) Precip ( " mm )
12:57 am 00:57 Cloudy with Light Rain 46 7.8 45 7.2 96 96 SSW 7 11 30.08 1019 10 16 0.06 1.52
1:57 am 01:57 Cloudy with Light Rain 46 7.8 45 7.2 96 96 S 8 13 30.06 1018 10 16 0.03 0.76
2:10 am 02:10 Cloudy with Light Rain 46 8 45 7 93 93 S 8 13 30.09 1019 10 16 0.00 0.03
2:34 am 02:34 Cloudy with Light Rain 46 8 45 7 93 93 S 8 13 30.09 1019 10 16 0.00 0.03
2:45 am 02:45 Cloudy with Light Rain 46 8 45 7 93 93 S 10 17 30.09 1019 10 16 0.00 0.00
2:53 am 02:53 Cloudy with Light Rain 46 8 45 7 93 93 S 12 19 30.09 1019 10 16 0.00 0.00
2:57 am 02:57 Cloudy with Light Rain 46 7.8 44 6.7 93 93 undefined N/A 30.04 1017 10 16 0.01 0.25
3:09 am 03:09 Cloudy with Light Rain 45 7 45 7 100 100 S 10 17 30.09 1019 10 16 0.00 0.00
3:57 am 03:57 Cloudy with Light Rain 45 7.2 43 6.1 93 93 S 8 13 30.03 1017 10 16 0.01 0.25
4:17 am 04:17 Cloudy with Light Rain 45 7 43 6 93 93 S 8 13 30.06 1018 10 16 0.02 0.51
4:31 am 04:31 Cloudy with Light Rain 45 7 43 6 93 93 S 8 13 30.06 1018 10 16 0.00 0.00
4:44 am 04:44 Cloudy with Light Rain 45 7 43 6 93 93 S 7 11 30.06 1018 10 16 0.03 0.76
4:57 am 04:57 Cloudy with Light Rain 44 6.7 43 6.1 96 96 S 8 13 30.01 1016 10 16 0.03 0.76
5:44 am 05:44 Cloudy with Light Rain 45 7 43 6 93 93 S 8 13 30.03 1017 10 16 0.01 0.25
5:57 am 05:57 Cloudy with Light Rain 44 6.7 43 6.1 96 96 S 6 9 30.01 1016 10 16 0.01 0.25
6:28 am 06:28 Cloudy with Light Rain 45 7 43 6 93 93 S 5 7 30.03 1017 10 16 0.02 0.51
6:57 am 06:57 Cloudy with Light Rain 44 6.7 43 6.1 96 96 S 5 7 30.00 1016 10 16 0.04 1.02
7:08 am 07:08 Cloudy with Light Rain 45 7 43 6 93 93 S 6 9 30.03 1017 10 16 0.00 0.03
7:25 am 07:25 Cloudy with Light Rain 45 7 43 6 93 93 S 5 7 30.03 1017 10 16 0.00 0.00
7:57 am 07:57 Cloudy with Light Rain 44 6.7 43 6.1 96 96 S 6 9 30.01 1016 10 16 0.02 0.51
8:34 am 08:34 Cloudy with Light Rain 45 7 43 6 93 93 S 6 9 30.03 1017 10 16 0.01 0.25
8:52 am 08:52 Cloudy with Light Rain 45 7 43 6 93 93 S 7 11 30.03 1017 10 16 0.01 0.25
8:57 am 08:57 Cloudy with Light Rain 44 6.7 43 6.1 96 96 S 7 11 30.01 1016 10 16 0.01 0.25
9:27 am 09:27 Cloudy with Light Rain 45 7 45 7 100 100 S 6 9 30.03 1017 10 16 0.02 0.51
9:47 am 09:47 Cloudy with Light Rain 45 7 45 7 100 100 S 5 7 30.03 1017 10 16 0.00 0.00
9:57 am 09:57 Cloudy with Light Rain 45 7.2 44 6.7 97 97 S 7 11 30.01 1016 10 16 0.04 1.02
10:45 am 10:45 Cloudy with Light Rain 45 7 45 7 100 100 S 5 7 30.03 1017 10 16 0.00 0.00
10:57 am 10:57 Cloudy with Light Rain 45 7.2 44 6.7 97 97 S 5 7 30.02 1017 10 16 0.03 0.76
11:23 am 11:23 Cloudy with Light Rain 45 7 45 7 100 100 SSE 5 7 30.03 1017 10 16 0.00 0.00
11:57 am 11:57 Cloudy with Light Rain 46 7.8 44 6.7 93 93 S 3 6 30.01 1016 10 16 0.04 1.02
12:15 pm 12:15 Cloudy with Light Rain 46 8 45 7 93 93 SSW 5 7 30.03 1017 10 16 0.00 0.00
12:57 pm 12:57 Cloudy with Light Rain 47 8.3 44 6.7 90 90 S 3 6 29.99 1016 10 16 0.01 0.25
1:21 pm 13:21 Cloudy 48 9 45 7 87 87 S 6 9 29.97 1015 10 16 0.00 0.00
1:25 pm 13:25 Mostly Cloudy 48 9 45 7 87 87 S 6 9 29.97 1015 10 16 0.00 0.00
1:57 pm 13:57 Cloudy 49 9.4 44 6.7 83 83 VRB 3 6 29.96 1015 10 16 0.00 0.00
2:05 pm 14:05 Cloudy 48 9 43 6 82 82 Calm 29.94 1014 10 16 0.00 0.00
2:57 pm 14:57 Cloudy 50 10 43 6.1 77 77 SSW 7 11 29.93 1014 10 16 0.00 0.00
3:57 pm 15:57 Cloudy 51 10.6 43 6.1 74 74 WSW 6 9 29.92 1013 10 16 0.00 0.00
4:57 pm 16:57 Cloudy 51 10.6 43 6.1 74 74 SW 7 11 29.91 1013 10 16 0.00 0.00
5:57 pm 17:57 Cloudy 51 10.6 43 6.1 74 74 SW 8 13 29.91 1013 10 16 0.00 0.00
6:57 pm 18:57 Cloudy 49 9.4 44 6.7 83 83 SSW 6 9 29.91 1013 10 16 0.00 0.00
7:19 pm 19:19 Partly Cloudy 46 8 43 6 87 87 SSW 6 9 29.91 1013 10 16 0.00 0.00
7:57 pm 19:57 Clear 46 7.8 43 6.1 89 89 SSW 5 7 29.93 1014 10 16 0.00 0.00
8:57 pm 20:57 Clear 45 7.2 42 5.6 90 90 SW 6 9 29.93 1014 10 16 0.00 0.00
9:57 pm 21:57 Clear 44 6.7 42 5.6 93 93 SSW 6 9 29.94 1014 10 16 0.00 0.00
10:57 pm 22:57 Mostly Cloudy 43 6.1 41 5 93 93 SSW 6 9 29.94 1014 10 16 0.00 0.00
11:57 pm 23:57 Clear 42 5.6 40 4.4 92 92 SSW 7 11 29.93 1013 10 16 0.00 0.00

Powered by AerisWeather